• In Hungary
  • List of Countries
  • For 7 days
  • Water Temperature
  • Satellite Maps
  • Weather Map
  • News
  • Weather Widgets
  • user-avatar
    Login

    Hourly Weather Klasterec nad Ohri

    Today, 14 December, Thursday

    Time Temperature Precipitation Wind Pressure Humidity
    00:00 -1°C° 0.1 mm 6 mps 718 mmHg 79%
    01:00 +1°C° 0 mm 6 mps 716 mmHg 80%
    02:00 0°C° 0.8 mm 7 mps 716 mmHg 80%
    03:00 +2°C° 0.8 mm 7 mps 716 mmHg 79%
    04:00 +2°C° 0.8 mm 7 mps 715 mmHg 78%
    05:00 +2°C° 0.4 mm 7 mps 715 mmHg 81%
    06:00 +2°C° 0.4 mm 6 mps 715 mmHg 83%
    07:00 +2°C° 0.4 mm 5 mps 715 mmHg 86%
    08:00 +2°C° 0.5 mm 7 mps 715 mmHg 80%
    09:00 +1°C° 0.5 mm 8 mps 716 mmHg 75%
    10:00 +1°C° 0.5 mm 10 mps 716 mmHg 69%
    11:00 +1°C° 0.1 mm 10 mps 717 mmHg 68%
    12:00 +1°C° 0.1 mm 10 mps 717 mmHg 67%
    13:00 +1°C° 0.1 mm 10 mps 718 mmHg 65%
    14:00 0°C° 0 mm 8 mps 718 mmHg 69%
    15:00 0°C° 0 mm 7 mps 718 mmHg 72%
    16:00 +1°C° 0 mm 6 mps 719 mmHg 75%
    17:00 +1°C° 0 mm 6 mps 718 mmHg 76%
    18:00 +1°C° 0 mm 6 mps 718 mmHg 78%
    19:00 +1°C° 0 mm 6 mps 718 mmHg 80%
    20:00 0°C° 0 mm 5 mps 718 mmHg 82%
    21:00 0°C° 0 mm 5 mps 717 mmHg 83%
    22:00 0°C° 0 mm 5 mps 717 mmHg 85%
    23:00 0°C° 0.5 mm 5 mps 716 mmHg 85%

    Tomorrow, 15 December, Friday

    Time Temperature Precipitation Wind Pressure Humidity
    00:00 +1°C° 0.5 mm 4 mps 716 mmHg 85%
    01:00 +1°C° 0.5 mm 4 mps 716 mmHg 85%
    02:00 +1°C° 0.4 mm 4 mps 715 mmHg 86%
    03:00 +1°C° 0.4 mm 4 mps 715 mmHg 88%
    04:00 +2°C° 0.4 mm 3 mps 715 mmHg 89%
    05:00 +1°C° 0.1 mm 3 mps 716 mmHg 89%
    06:00 +1°C° 0.1 mm 3 mps 716 mmHg 89%
    07:00 +1°C° 0.1 mm 3 mps 717 mmHg 89%
    08:00 0°C° 0.5 mm 4 mps 717 mmHg 88%
    09:00 0°C° 0.5 mm 4 mps 718 mmHg 87%
    10:00 0°C° 0.5 mm 5 mps 719 mmHg 85%
    11:00 +1°C° 0 mm 5 mps 719 mmHg 82%
    12:00 +1°C° 0 mm 5 mps 719 mmHg 79%
    13:00 +1°C° 0 mm 5 mps 719 mmHg 76%
    14:00 0°C° 0 mm 5 mps 720 mmHg 79%
    15:00 0°C° 0 mm 4 mps 720 mmHg 82%
    16:00 0°C° 0 mm 3 mps 720 mmHg 85%
    17:00 0°C° 0 mm 3 mps 720 mmHg 87%
    18:00 0°C° 0 mm 3 mps 720 mmHg 88%
    19:00 -1°C° 0 mm 3 mps 720 mmHg 90%
    20:00 -1°C° 0 mm 3 mps 721 mmHg 90%
    21:00 0°C° 0 mm 3 mps 721 mmHg 91%
    22:00 0°C° 0 mm 3 mps 721 mmHg 91%
    23:00 0°C° 0 mm 3 mps 721 mmHg 91%

    Day after tomorrow, 16 December, Saturday

    Time Temperature Precipitation Wind Pressure Humidity
    00:00 0°C° 0 mm 3 mps 721 mmHg 91%
    01:00 0°C° 0 mm 3 mps 721 mmHg 92%
    02:00 0°C° 0.1 mm 3 mps 722 mmHg 92%
    03:00 0°C° 0.1 mm 3 mps 722 mmHg 92%
    04:00 -1°C° 0.1 mm 3 mps 722 mmHg 92%
    05:00 -1°C° 0.1 mm 3 mps 722 mmHg 91%
    06:00 -1°C° 0.1 mm 3 mps 723 mmHg 91%
    07:00 -1°C° 0.1 mm 3 mps 723 mmHg 90%
    08:00 0°C° 0.1 mm 3 mps 724 mmHg 89%
    09:00 -1°C° 0.1 mm 4 mps 724 mmHg 87%
    10:00 -1°C° 0.1 mm 4 mps 725 mmHg 86%
    11:00 0°C° 0 mm 4 mps 725 mmHg 84%
    12:00 0°C° 0 mm 4 mps 726 mmHg 83%
    13:00 0°C° 0 mm 5 mps 726 mmHg 81%
    14:00 0°C° 0.1 mm 4 mps 726 mmHg 82%
    15:00 -1°C° 0.1 mm 4 mps 727 mmHg 82%
    16:00 -1°C° 0.1 mm 4 mps 727 mmHg 83%
    17:00 -1°C° 0.1 mm 4 mps 728 mmHg 84%
    18:00 -2°C° 0.1 mm 4 mps 728 mmHg 85%
    19:00 -2°C° 0.1 mm 4 mps 728 mmHg 86%
    20:00 -2°C° 0 mm 4 mps 729 mmHg 87%
    21:00 -2°C° 0 mm 4 mps 729 mmHg 87%
    22:00 -2°C° 0 mm 4 mps 730 mmHg 88%
    23:00 -2°C° 0 mm 4 mps 730 mmHg 88%

    17 December, Sunday

    Time Temperature Precipitation Wind Pressure Humidity
    00:00 -2°C° 0 mm 4 mps 731 mmHg 88%
    01:00 -2°C° 0 mm 4 mps 731 mmHg 88%
    02:00 -2°C° 0 mm 5 mps 731 mmHg 88%
    03:00 -2°C° 0 mm 5 mps 731 mmHg 87%
    04:00 -2°C° 0 mm 5 mps 732 mmHg 87%
    05:00 -2°C° 0.1 mm 5 mps 732 mmHg 86%
    06:00 -2°C° 0.1 mm 5 mps 733 mmHg 86%
    07:00 -2°C° 0.1 mm 5 mps 733 mmHg 85%
    08:00 -2°C° 0.2 mm 5 mps 734 mmHg 85%
    09:00 -2°C° 0.2 mm 5 mps 734 mmHg 85%
    10:00 -2°C° 0.2 mm 5 mps 735 mmHg 84%
    11:00 -1°C° 0.2 mm 5 mps 735 mmHg 84%
    12:00 -1°C° 0.2 mm 5 mps 735 mmHg 84%
    13:00 -1°C° 0.2 mm 5 mps 735 mmHg 83%
    14:00 -1°C° 0.2 mm 5 mps 736 mmHg 84%
    15:00 -1°C° 0.2 mm 5 mps 736 mmHg 85%
    16:00 -1°C° 0.2 mm 5 mps 736 mmHg 86%
    17:00 -1°C° 0.2 mm 5 mps 737 mmHg 86%
    18:00 -1°C° 0.2 mm 5 mps 737 mmHg 87%
    19:00 -1°C° 0.2 mm 5 mps 738 mmHg 87%
    20:00 -2°C° 0.1 mm 5 mps 738 mmHg 88%
    21:00 -2°C° 0.1 mm 4 mps 738 mmHg 88%
    22:00 -2°C° 0.1 mm 4 mps 738 mmHg 88%
    23:00 -2°C° 0 mm 4 mps 738 mmHg 88%

    18 December, Monday

    Time Temperature Precipitation Wind Pressure Humidity
    00:00 -2°C° 0 mm 5 mps 738 mmHg 88%
    01:00 -2°C° 0 mm 5 mps 737 mmHg 88%
    02:00 -2°C° 0.1 mm 5 mps 736 mmHg 87%
    03:00 -3°C° 0.1 mm 6 mps 735 mmHg 86%
    04:00 -3°C° 0.1 mm 6 mps 734 mmHg 85%
    05:00 -3°C° 1.4 mm 7 mps 733 mmHg 87%
    06:00 -2°C° 1.4 mm 7 mps 732 mmHg 88%
    07:00 -2°C° 1.4 mm 8 mps 731 mmHg 90%
    08:00 -1°C° 1.3 mm 7 mps 730 mmHg 90%
    09:00 0°C° 1.3 mm 7 mps 730 mmHg 91%
    10:00 0°C° 1.3 mm 7 mps 729 mmHg 91%
    11:00 0°C° 0.4 mm 7 mps 729 mmHg 92%
    12:00 +2°C° 0.4 mm 7 mps 729 mmHg 92%
    13:00 +2°C° 0.4 mm 6 mps 729 mmHg 93%
    14:00 +1°C° 0.3 mm 6 mps 730 mmHg 92%
    15:00 +1°C° 0.3 mm 6 mps 730 mmHg 91%
    16:00 +1°C° 0.3 mm 6 mps 731 mmHg 90%
    17:00 +1°C° 0.3 mm 5 mps 731 mmHg 91%
    18:00 +1°C° 0.3 mm 5 mps 732 mmHg 92%
    19:00 +1°C° 0.3 mm 4 mps 733 mmHg 92%
    20:00 0°C° 0.2 mm 4 mps 733 mmHg 93%
    21:00 +1°C° 0.2 mm 3 mps 734 mmHg 94%
    22:00 +1°C° 0.2 mm 3 mps 735 mmHg 94%
    23:00 +1°C° 0.1 mm 3 mps 736 mmHg 94%

    19 December, Tuesday

    Time Temperature Precipitation Wind Pressure Humidity
    00:00 +1°C° 0.1 mm 3 mps 736 mmHg 95%
    01:00 +2°C° 0.1 mm 2 mps 737 mmHg 95%
    02:00 +1°C° 0.1 mm 2 mps 738 mmHg 95%
    03:00 +1°C° 0.1 mm 2 mps 738 mmHg 95%
    04:00 -1°C° 0.1 mm 2 mps 739 mmHg 94%
    05:00 -1°C° 0.1 mm 2 mps 739 mmHg 94%
    06:00 -1°C° 0.1 mm 2 mps 740 mmHg 94%
    07:00 -2°C° 0.1 mm 2 mps 741 mmHg 94%
    08:00 -2°C° 0 mm 2 mps 742 mmHg 93%
    09:00 -2°C° 0 mm 2 mps 742 mmHg 91%
    10:00 -2°C° 0 mm 2 mps 743 mmHg 90%
    11:00 -2°C° 0 mm 2 mps 744 mmHg 88%
    12:00 -1°C° 0 mm 2 mps 744 mmHg 86%
    13:00 +1°C° 0 mm 1 mps 744 mmHg 83%
    14:00 0°C° 0 mm 1 mps 744 mmHg 85%
    15:00 0°C° 0 mm 1 mps 745 mmHg 87%
    16:00 -2°C° 0 mm 0 mps 745 mmHg 88%
    17:00 -3°C° 0 mm 0 mps 745 mmHg 89%
    18:00 -3°C° 0 mm 0 mps 745 mmHg 90%
    19:00 -3°C° 0 mm 1 mps 746 mmHg 90%
    20:00 -3°C° 0 mm 1 mps 746 mmHg 90%
    21:00 -3°C° 0 mm 1 mps 746 mmHg 90%
    22:00 -3°C° 0 mm 1 mps 746 mmHg 89%
    23:00 -3°C° 0 mm 1 mps 746 mmHg 89%
    Show more